Other Public Products
Issued by NWS Charleston, SC

Current Version | Previous Version | Graphics & Text | Print | Product List | Glossary On
Versions: 1 2 3 4 5 6 7 8 9 10 11 12 13 14 15 16 17 18 19 20 21 22 23 24 25 26 27 28 29 30 31 32 33 34 35 36 37 38 39 40 41 42 43 44 45 46 47 48 49 50
732
FPUS82 KCHS 240812
OPUCHS

TEST...KCHS/KSAV Gateway Observations...TEST
National Weather Service Charleston SC
400 AM EDT THU MAY 24 2018

NOTE: "fair" indicates few or no clouds below 12,000 feet with no
significant weather and/or obstructions to visibility.

SCZ050-WAZ558-NCZ071-TXZ119-213-PAZ071-DCZ001-FLZ074-172-MI076-
NYZ176-178-MAZ016-IL014-TNZ027-NJZ106-GAZ044-MD014-240900-

...Gateway Observations for Charleston International...

CITY           SKY/WX    TMP DP  RH WIND       PRES   REMARKS
Chas Airport   FAIR      72  70  93 CALM      30.07R
Seattle        PTCLDY    56  51  84 SW6       29.95R
Charlotte      FAIR      70  69  97 N3        30.08F
Dallas DFW     PTCLDY    73  67  81 S7        30.03F
Dallas Love    PTCLDY    76  67  73 S8        30.04F
Philladelphia  FAIR      64  54  69 NW8       30.07S
Wash National  FAIR      65  58  78 E5        30.12R
Baltimore      FAIR      61  55  81 W6        30.09S
Miami          MOCLDY    77  75  93 SE6       30.03S
Detroit        FAIR      61  51  70 CALM      30.20S
Newark         FAIR      68  51  54 NW7       30.03S
Laguardia      FAIR      66  52  60 NW6       30.03R
J F K          FAIR      67  51  56 NW9       30.04R
Boston Logan   FAIR      54  52  93 N5        30.02R
Ft. Lauderdale MOCLDY    78  75  90 SE13      30.03R
Chicago O`Hare FAIR      60  52  74 CALM      30.16S
Chicago Midway FAIR      60  53  77 CALM      30.16S
Houston Bush   FAIR      71  70  96 NE5       30.03F
Houston Hobby  FAIR      74  74 100 CALM      30.02F
Nashville      MOCLDY    68  65  90 CALM      30.08F
Atlanta        FOG       70  68  93 CALM      30.07S VSB 1/2

$$

GAZ044-118-TXZ119-213-NCZ071-DCZ001-MDZ014-506-PAZ021-071-NJZ106-
NYZ176-178-MAZ106-OHZ011-021-055-MIZ076-KYZ091-ILZ014-INZ047-
MNZ060-ONZ431-240900-

...Gateway Observations for Savannah International...

CITY           SKY/WX    TMP DP  RH WIND       PRES   REMARKS
Savannah Arpt  MOCLDY    73  71  93 S6        30.07S
Atlanta        FOG       70  68  93 CALM      30.07S VSB 1/2
Charlotte      FAIR      70  69  97 N3        30.08F
Dallas DFW     PTCLDY    73  67  81 S7        30.03F
Houston Bush   FAIR      71  70  96 NE5       30.03F
Wash National  FAIR      65  58  78 E5        30.12R
Wash Dulles    FAIR      59  57  93 NW3       30.13S
Baltimore      FAIR      61  55  81 W6        30.09S
Philadelphia   FAIR      64  54  69 NW8       30.07S
Newark         FAIR      68  51  54 NW7       30.03S
Laguardia      FAIR      66  52  60 NW6       30.03R
J F K          FAIR      67  51  56 NW9       30.04R
Boston         FAIR      54  52  93 N5        30.02R
Pittsburg      FAIR      54  50  86 CALM      30.19F
Akron          FAIR      54  49  83 CALM      30.21S
Cleveland      FAIR      55  51  86 CALM      30.22S
Cincinnati     FAIR      63  56  78 E5        30.17S
Columbus       FAIR      56  53  89 MISG      30.19S
Detroit        FAIR      61  51  70 CALM      30.20S
Chicago O`Hare FAIR      60  52  74 CALM      30.16S
Minneapolis    FAIR      73  65  75 SE8       30.04S
Indianapolis   FAIR      65  53  65 E8        30.16F
Toronto Canada CLEAR     55  46  71 W5        30.15R

$$




USA.gov is the U.S. government's official web portal to all federal, state and local government web resources and services.